TimeHST,TemperatureF,Dew PointF,Humidity,Sea Level PressureIn,VisibilityMPH,Wind Direction,Wind SpeedMPH,Gust SpeedMPH,PrecipitationIn,Events,Conditions,WindDirDegrees,DateUTC
12:56 AM,65.8,63.9,93,29.99,10.0,Calm,Calm,-,N/A,,Clear,0,2012-10-18 10:56:00
1:56 AM,68.0,65.8,93,29.98,10.0,North,5.8,-,N/A,,Mostly Cloudy,10,2012-10-18 11:56:00
2:56 AM,68.9,65.8,90,29.96,10.0,North,5.8,-,N/A,,Partly Cloudy,10,2012-10-18 12:56:00
3:56 AM,68.9,65.8,90,29.96,10.0,NE,8.1,-,N/A,,Overcast,40,2012-10-18 13:56:00
4:56 AM,70.0,64.9,84,29.97,10.0,ENE,5.8,-,N/A,,Mostly Cloudy,60,2012-10-18 14:56:00
5:56 AM,66.9,63.9,90,29.99,10.0,NE,5.8,-,N/A,,Clear,50,2012-10-18 15:56:00
6:56 AM,68.9,65.8,90,30.00,10.0,ENE,6.9,-,N/A,,Clear,60,2012-10-18 16:56:00
7:56 AM,73.9,64.9,73,30.01,10.0,NNE,5.8,-,N/A,,Clear,30,2012-10-18 17:56:00
8:56 AM,77.9,65.8,66,30.00,10.0,NNE,3.5,-,N/A,,Clear,20,2012-10-18 18:56:00
9:47 AM,80.6,66.2,61,30.07,10.0,Variable,4.6,-,N/A,,Mostly Cloudy,0,2012-10-18 19:47:00
9:56 AM,77.9,65.8,66,30.01,10.0,SW,4.6,-,N/A,,Mostly Cloudy,220,2012-10-18 19:56:00
10:56 AM,77.9,65.8,66,29.99,10.0,SSW,5.8,-,N/A,,Partly Cloudy,200,2012-10-18 20:56:00
11:28 AM,77.0,64.4,65,30.04,10.0,Calm,Calm,-,N/A,,Mostly Cloudy,0,2012-10-18 21:28:00
11:56 AM,77.0,63.9,64,29.98,10.0,Calm,Calm,-,N/A,,Overcast,0,2012-10-18 21:56:00
12:38 PM,78.8,64.4,61,30.01,10.0,NW,4.6,-,N/A,,Scattered Clouds,320,2012-10-18 22:38:00
12:56 PM,77.9,63.0,60,29.95,10.0,Calm,Calm,-,N/A,,Scattered Clouds,0,2012-10-18 22:56:00
1:07 PM,78.8,62.6,57,30.00,10.0,Calm,Calm,-,N/A,,Mostly Cloudy,0,2012-10-18 23:07:00
1:39 PM,78.8,62.6,57,29.99,10.0,Calm,Calm,-,N/A,,Mostly Cloudy,0,2012-10-18 23:39:00
1:56 PM,78.8,62.6,57,29.99,10.0,Calm,Calm,-,N/A,,Mostly Cloudy,0,2012-10-18 23:56:00
2:05 PM,78.8,62.6,57,29.98,10.0,Calm,Calm,-,N/A,,Scattered Clouds,0,2012-10-19 00:05:00
2:14 PM,78.8,64.4,61,29.98,10.0,Calm,Calm,-,N/A,,Mostly Cloudy,0,2012-10-19 00:14:00
2:56 PM,77.9,63.9,62,29.91,10.0,Calm,Calm,-,N/A,,Mostly Cloudy,0,2012-10-19 00:56:00
3:56 PM,77.0,64.9,66,29.92,10.0,SE,4.6,-,N/A,,Mostly Cloudy,130,2012-10-19 01:56:00
4:56 PM,75.9,64.9,69,29.94,10.0,Calm,Calm,-,N/A,,Overcast,0,2012-10-19 02:56:00
5:56 PM,74.8,64.9,71,29.96,10.0,Calm,Calm,-,N/A,,Mostly Cloudy,0,2012-10-19 03:56:00
6:21 PM,73.4,64.4,73,30.02,10.0,Calm,Calm,-,N/A,,Mostly Cloudy,0,2012-10-19 04:21:00
6:56 PM,72.9,63.9,73,29.98,10.0,Calm,Calm,-,N/A,,Mostly Cloudy,0,2012-10-19 04:56:00
7:29 PM,71.6,64.4,78,30.05,10.0,Calm,Calm,-,N/A,,Scattered Clouds,0,2012-10-19 05:29:00
7:56 PM,70.0,63.0,78,30.00,10.0,Calm,Calm,-,N/A,,Clear,0,2012-10-19 05:56:00
8:56 PM,68.0,63.0,84,30.02,10.0,Calm,Calm,-,N/A,,Clear,0,2012-10-19 06:56:00
9:56 PM,68.0,63.9,87,30.02,10.0,NNE,4.6,-,N/A,,Clear,20,2012-10-19 07:56:00
10:56 PM,68.0,63.9,87,30.02,10.0,North,5.8,-,N/A,,Clear,10,2012-10-19 08:56:00
11:56 PM,68.9,64.9,87,30.01,10.0,NNE,4.6,-,N/A,,Clear,20,2012-10-19 09:56:00